GFSFLT2_prec_pwat_009.txt.gz
Precipitable_Water
0.24 0.20 0.18 0.20 0.22 0.34 0.34 0.41 0.36 0.40 0.44 0.59 0.70 0.69 0.63 0.62 0.59 0.63 0.83 0.97 0.97 0.99 1.06 1.14 1.16 1.16 1.17 1.30 1.28 1.27 1.35 1.40
0.25 0.23 0.19 0.16 0.24 0.26 0.32 0.29 0.31 0.36 0.39 0.44 0.51 0.55 0.54 0.60 0.57 0.61 0.73 0.92 0.99 0.97 1.04 1.14 1.19 1.17 1.16 1.23 1.25 1.25 1.33 1.41
0.33 0.22 0.18 0.16 0.16 0.28 0.33 0.34 0.30 0.32 0.39 0.47 0.53 0.63 0.52 0.55 0.54 0.59 0.70 0.88 0.97 0.99 1.04 1.12 1.15 1.16 1.14 1.16 1.23 1.23 1.26 1.34
0.28 0.32 0.29 0.22 0.18 0.20 0.28 0.30 0.33 0.34 0.37 0.56 0.54 0.54 0.56 0.57 0.58 0.60 0.68 0.82 0.90 1.01 1.04 1.07 1.09 1.13 1.14 1.13 1.18 1.24 1.28 1.30
0.31 0.31 0.29 0.24 0.21 0.19 0.20 0.32 0.32 0.31 0.32 0.51 0.60 0.54 0.57 0.59 0.56 0.56 0.68 0.82 0.91 0.93 1.03 1.03 1.11 1.11 1.10 1.12 1.11 1.24 1.33 1.37
0.27 0.31 0.31 0.23 0.23 0.20 0.21 0.19 0.25 0.32 0.40 0.49 0.51 0.51 0.53 0.55 0.54 0.63 0.70 0.74 0.72 0.89 0.95 1.05 1.12 1.14 1.09 1.09 1.12 1.25 1.36 1.39
0.36 0.40 0.40 0.31 0.22 0.21 0.20 0.21 0.22 0.28 0.37 0.43 0.50 0.54 0.53 0.53 0.52 0.52 0.56 0.72 0.74 0.83 0.89 1.06 1.16 1.19 1.16 1.12 1.16 1.27 1.33 1.40
0.36 0.36 0.34 0.33 0.34 0.30 0.25 0.21 0.22 0.26 0.30 0.42 0.49 0.59 0.59 0.51 0.52 0.49 0.52 0.62 0.74 0.81 0.90 1.07 1.16 1.21 1.22 1.20 1.24 1.34 1.38 1.37
0.39 0.44 0.44 0.36 0.30 0.31 0.33 0.32 0.26 0.22 0.23 0.32 0.40 0.48 0.51 0.51 0.54 0.51 0.49 0.51 0.77 0.79 0.87 1.08 1.19 1.24 1.28 1.29 1.30 1.32 1.33 1.41
0.42 0.49 0.36 0.37 0.45 0.44 0.38 0.37 0.37 0.32 0.29 0.30 0.30 0.38 0.47 0.52 0.50 0.49 0.48 0.48 0.71 0.84 0.99 1.16 1.27 1.23 1.29 1.32 1.29 1.29 1.29 1.35
0.44 0.44 0.53 0.51 0.63 0.54 0.52 0.42 0.40 0.42 0.38 0.31 0.33 0.35 0.34 0.43 0.42 0.49 0.52 0.62 0.79 0.89 1.08 1.26 1.25 1.24 1.25 1.20 1.26 1.28 1.30 1.37
0.53 0.42 0.38 0.48 0.87 0.75 0.62 0.38 0.48 0.47 0.41 0.32 0.36 0.37 0.35 0.40 0.56 0.68 0.63 0.64 0.84 0.94 1.12 1.24 1.24 1.29 1.20 1.17 1.22 1.24 1.33 1.36
0.43 0.46 0.46 0.68 0.75 0.77 0.47 0.50 0.73 0.65 0.59 0.48 0.35 0.44 0.62 0.67 0.65 0.68 0.68 0.80 0.93 1.07 1.14 1.19 1.24 1.25 1.17 1.19 1.15 1.18 1.20 1.26
0.43 0.41 0.39 0.81 0.75 0.62 0.78 0.87 0.86 0.79 0.66 0.61 0.46 0.49 0.74 0.75 0.78 0.80 0.77 0.82 0.94 1.07 1.14 1.22 1.28 1.26 1.19 1.11 1.15 1.21 1.26 1.31
0.47 0.46 0.78 0.87 0.83 0.90 0.81 0.77 0.81 0.79 0.79 0.78 0.71 0.83 0.85 0.80 0.92 0.99 1.05 1.02 1.12 1.19 1.12 1.19 1.26 1.25 1.16 1.26 1.32 1.34 1.37 1.37
0.71 0.82 0.87 0.89 0.94 0.98 0.94 0.95 0.96 0.93 0.96 0.96 0.89 0.93 1.00 1.02 1.00 0.95 1.08 1.12 1.22 1.28 1.21 1.26 1.34 1.30 1.38 1.36 1.41 1.40 1.32 1.30
0.76 0.92 0.88 0.89 0.90 0.79 0.88 1.02 1.03 1.14 1.19 1.17 1.18 1.15 1.19 1.18 1.15 1.18 1.19 1.22 1.27 1.25 1.16 1.16 1.25 1.29 1.31 1.38 1.43 1.32 1.34 1.38
0.81 0.87 0.78 0.74 0.79 0.89 0.90 1.03 1.08 1.13 1.19 1.39 1.37 1.34 1.33 1.30 1.30 1.32 1.30 1.28 1.20 1.18 1.18 1.20 1.23 1.24 1.29 1.36 1.39 1.32 1.31 1.35
1.01 0.97 0.80 0.80 0.83 0.88 0.88 0.99 1.05 1.09 1.09 1.10 1.12 1.16 1.12 1.12 1.18 1.22 1.24 1.19 1.16 1.15 1.18 1.23 1.27 1.29 1.38 1.45 1.47 1.41 1.33 1.34

GFSFLT2_prec_pwat_015.txt.gz
Precipitable_Water
0.28 0.26 0.22 0.19 0.15 0.19 0.20 0.27 0.27 0.28 0.35 0.42 0.55 0.68 0.84 0.93 0.98 1.03 1.09 1.16 1.18 1.14 1.15 1.14 1.19 1.31 1.35 1.43 1.42 1.41 1.38 1.35
0.29 0.30 0.26 0.21 0.21 0.17 0.17 0.14 0.17 0.21 0.29 0.30 0.46 0.53 0.69 0.79 0.85 0.92 0.98 1.17 1.21 1.20 1.19 1.14 1.15 1.27 1.38 1.47 1.39 1.42 1.45 1.39
0.29 0.27 0.24 0.22 0.18 0.18 0.19 0.18 0.16 0.18 0.20 0.37 0.43 0.61 0.68 0.74 0.80 0.85 0.89 0.92 1.13 1.19 1.21 1.14 1.17 1.24 1.31 1.40 1.42 1.42 1.45 1.40
0.23 0.31 0.34 0.28 0.23 0.20 0.15 0.15 0.20 0.21 0.20 0.37 0.45 0.57 0.71 0.68 0.78 0.81 0.86 0.91 1.08 1.15 1.17 1.13 1.15 1.17 1.25 1.38 1.39 1.39 1.41 1.43
0.21 0.27 0.31 0.29 0.30 0.26 0.21 0.19 0.17 0.17 0.16 0.27 0.41 0.55 0.73 0.79 0.88 0.85 0.81 0.86 0.99 1.06 1.14 1.15 1.20 1.09 1.23 1.33 1.39 1.42 1.43 1.36
0.23 0.23 0.30 0.29 0.31 0.31 0.26 0.17 0.15 0.15 0.17 0.23 0.34 0.44 0.49 0.69 0.83 0.86 0.85 0.77 0.85 0.97 1.08 1.09 1.13 1.14 1.16 1.28 1.40 1.43 1.40 1.31
0.31 0.31 0.31 0.30 0.33 0.32 0.28 0.23 0.18 0.17 0.17 0.20 0.27 0.41 0.53 0.66 0.71 0.74 0.74 0.77 0.78 1.01 1.04 1.10 1.10 1.14 1.14 1.25 1.34 1.40 1.36 1.25
0.28 0.33 0.33 0.29 0.33 0.36 0.33 0.31 0.27 0.25 0.20 0.25 0.29 0.40 0.48 0.64 0.64 0.64 0.69 0.76 0.82 0.88 1.00 1.08 1.10 1.08 1.08 1.17 1.26 1.41 1.36 1.22
0.25 0.32 0.37 0.32 0.29 0.35 0.38 0.38 0.34 0.26 0.25 0.29 0.24 0.30 0.38 0.49 0.65 0.68 0.67 0.77 0.91 0.96 1.03 1.08 1.11 1.02 1.01 1.05 1.17 1.31 1.34 1.32
0.29 0.33 0.28 0.35 0.42 0.42 0.42 0.44 0.42 0.36 0.34 0.34 0.29 0.27 0.36 0.41 0.44 0.61 0.71 0.75 0.79 0.80 0.99 1.08 1.13 1.13 1.05 1.05 1.09 1.19 1.29 1.33
0.31 0.30 0.32 0.37 0.41 0.43 0.44 0.41 0.48 0.45 0.44 0.36 0.31 0.29 0.30 0.35 0.38 0.39 0.55 0.77 0.78 0.95 0.88 1.05 1.02 1.09 1.14 1.10 1.03 1.10 1.22 1.28
0.35 0.29 0.24 0.33 0.46 0.59 0.60 0.42 0.62 0.59 0.56 0.51 0.46 0.34 0.32 0.47 0.50 0.44 0.43 0.48 0.55 0.79 0.91 0.92 1.08 1.11 1.05 1.01 1.06 1.02 1.17 1.29
0.39 0.30 0.32 0.49 0.48 0.68 0.50 0.52 0.79 0.71 0.67 0.63 0.54 0.56 0.60 0.57 0.54 0.62 0.55 0.51 0.51 0.53 0.80 0.94 1.12 1.14 1.08 1.04 1.03 1.09 1.26 1.50
0.47 0.35 0.35 0.60 0.63 0.58 0.73 0.85 0.83 0.78 0.75 0.71 0.69 0.64 0.61 0.58 0.56 0.58 0.61 0.68 0.54 0.58 0.62 0.73 1.07 1.12 1.15 1.08 1.20 1.36 1.56 1.61
0.54 0.57 0.80 0.86 0.77 0.88 0.92 0.90 0.89 0.88 0.89 0.80 0.75 0.72 0.67 0.63 0.62 0.61 0.73 0.74 0.94 0.81 0.83 0.96 1.20 1.39 1.34 1.45 1.47 1.54 1.69 1.75
0.61 0.63 0.73 0.78 0.93 1.02 1.18 1.23 1.26 1.15 1.03 0.94 0.86 0.86 0.87 0.98 0.96 0.95 0.91 0.85 1.00 1.25 1.27 1.23 1.36 1.47 1.55 1.60 1.56 1.61 1.76 1.77
0.69 0.81 1.03 1.02 1.11 1.29 1.17 1.13 1.23 1.23 1.10 1.02 0.95 0.94 1.04 1.07 1.13 1.28 1.26 1.19 1.10 1.18 1.43 1.56 1.65 1.62 1.71 1.73 1.63 1.60 1.79 1.85
0.72 0.91 0.95 1.08 1.26 1.30 1.22 1.20 1.27 1.12 1.00 1.02 0.98 0.97 1.05 1.14 1.26 1.25 1.34 1.88 1.41 1.36 1.37 1.49 1.59 1.66 1.73 1.84 1.77 1.77 1.81 1.83
0.89 1.04 1.04 1.07 1.07 1.17 1.09 1.09 1.05 0.99 0.95 0.95 1.03 1.02 1.03 1.06 1.06 1.14 1.15 2.20 1.54 1.45 1.53 1.57 1.67 1.65 1.77 1.83 1.75 1.60 1.43 1.43

GFSFLT2_prec_pwat_021.txt.gz
Precipitable_Water
0.30 0.28 0.25 0.22 0.20 0.20 0.15 0.17 0.17 0.20 0.26 0.32 0.41 0.50 0.63 0.73 0.84 0.93 0.96 1.00 1.07 1.16 1.15 1.19 1.21 1.24 1.27 1.25 1.25 1.35 1.38 1.41
0.26 0.31 0.30 0.24 0.25 0.17 0.17 0.11 0.11 0.13 0.16 0.20 0.32 0.41 0.52 0.60 0.68 0.84 0.91 0.98 1.06 1.14 1.19 1.22 1.20 1.21 1.32 1.33 1.25 1.31 1.39 1.44
0.26 0.22 0.19 0.22 0.21 0.22 0.21 0.17 0.11 0.09 0.10 0.18 0.24 0.37 0.46 0.55 0.61 0.70 0.80 0.85 0.98 1.08 1.16 1.17 1.24 1.25 1.24 1.33 1.34 1.30 1.40 1.45
0.23 0.26 0.23 0.22 0.21 0.22 0.18 0.15 0.15 0.13 0.11 0.20 0.18 0.26 0.40 0.44 0.52 0.57 0.65 0.76 0.91 1.04 1.12 1.12 1.18 1.22 1.20 1.27 1.36 1.35 1.37 1.41
0.20 0.24 0.25 0.23 0.23 0.23 0.21 0.21 0.16 0.13 0.13 0.19 0.19 0.21 0.31 0.41 0.46 0.50 0.64 0.77 0.88 1.04 1.08 1.08 1.16 1.21 1.23 1.26 1.29 1.37 1.40 1.38
0.20 0.22 0.25 0.21 0.22 0.23 0.21 0.17 0.17 0.16 0.17 0.19 0.19 0.19 0.20 0.35 0.42 0.49 0.58 0.76 0.87 0.95 1.10 1.10 1.13 1.18 1.20 1.23 1.30 1.35 1.41 1.38
0.32 0.32 0.29 0.26 0.23 0.23 0.21 0.21 0.18 0.18 0.18 0.19 0.19 0.20 0.23 0.26 0.37 0.44 0.53 0.66 0.84 0.95 1.09 1.10 1.14 1.23 1.27 1.28 1.37 1.38 1.37 1.36
0.29 0.31 0.30 0.27 0.26 0.23 0.23 0.23 0.23 0.22 0.20 0.24 0.26 0.25 0.23 0.23 0.27 0.35 0.40 0.56 0.71 0.86 0.96 1.01 1.07 1.12 1.19 1.33 1.37 1.43 1.38 1.32
0.27 0.32 0.31 0.24 0.22 0.25 0.25 0.26 0.25 0.20 0.23 0.28 0.28 0.28 0.28 0.25 0.27 0.32 0.39 0.53 0.72 0.82 0.91 0.99 0.97 1.06 1.12 1.21 1.33 1.42 1.34 1.34
0.32 0.33 0.22 0.23 0.32 0.31 0.29 0.28 0.28 0.27 0.29 0.31 0.31 0.32 0.33 0.30 0.25 0.32 0.41 0.44 0.57 0.75 0.83 0.89 0.88 0.98 1.08 1.22 1.32 1.37 1.35 1.34
0.33 0.31 0.29 0.29 0.34 0.32 0.31 0.28 0.33 0.29 0.31 0.33 0.35 0.35 0.33 0.34 0.31 0.30 0.35 0.41 0.48 0.64 0.80 0.82 0.86 0.92 1.03 1.15 1.27 1.32 1.36 1.37
0.38 0.31 0.24 0.32 0.50 0.58 0.40 0.27 0.35 0.34 0.33 0.35 0.38 0.30 0.33 0.36 0.36 0.35 0.35 0.41 0.49 0.56 0.72 0.80 0.86 0.94 0.97 1.04 1.16 1.24 1.35 1.37
0.37 0.35 0.33 0.48 0.63 0.68 0.34 0.26 0.49 0.43 0.37 0.38 0.37 0.41 0.44 0.45 0.48 0.48 0.45 0.42 0.46 0.54 0.58 0.79 0.96 1.07 1.05 1.08 1.09 1.24 1.35 1.30
0.43 0.38 0.29 0.68 0.72 0.58 0.69 0.74 0.61 0.55 0.53 0.49 0.55 0.61 0.62 0.60 0.58 0.64 0.65 0.66 0.64 0.48 0.50 0.73 0.86 0.89 0.98 1.07 1.13 1.28 1.38 1.35
0.50 0.45 0.64 0.86 0.98 1.08 1.07 0.95 0.80 0.71 0.74 0.74 0.73 0.75 0.79 0.78 0.75 0.73 0.76 0.81 0.87 0.79 0.74 0.66 0.65 0.91 0.88 0.87 0.95 1.16 1.27 1.32
0.47 0.70 0.67 0.86 1.13 1.13 1.13 1.09 1.03 1.00 0.92 0.93 0.85 0.89 0.87 0.90 0.89 0.85 0.85 0.83 0.90 0.86 0.80 0.81 0.96 0.94 0.89 0.92 1.06 1.14 1.14 1.13
0.54 0.75 0.79 0.89 1.06 1.14 1.16 1.21 1.09 1.09 1.03 0.97 0.99 0.98 0.98 0.95 0.95 0.95 0.96 0.99 0.99 1.00 1.02 1.01 1.05 1.07 1.12 1.11 1.05 0.96 1.08 1.17
0.57 0.76 0.75 0.84 1.02 1.10 1.11 1.10 1.14 1.15 1.11 1.12 1.11 1.07 1.09 1.04 1.06 1.03 0.96 0.96 0.96 0.98 0.99 0.99 1.03 1.09 1.16 1.29 1.32 1.12 1.04 1.10
0.73 0.90 0.92 1.08 1.16 1.27 1.15 1.11 1.13 1.12 1.16 1.10 1.13 1.10 1.10 1.08 1.10 1.06 1.07 1.04 1.01 1.01 1.01 1.03 1.03 1.05 1.11 1.13 1.39 1.44 1.40 1.48

GFSFLT2_prec_pwat_024.txt.gz
Precipitable_Water
0.31 0.29 0.27 0.22 0.18 0.19 0.14 0.16 0.14 0.18 0.22 0.30 0.37 0.46 0.59 0.65 0.68 0.74 0.85 0.95 1.05 1.15 1.14 1.10 1.14 1.19 1.24 1.27 1.23 1.20 1.17 1.18
0.32 0.35 0.31 0.25 0.25 0.18 0.18 0.10 0.09 0.12 0.14 0.17 0.24 0.31 0.47 0.59 0.64 0.72 0.82 0.90 1.00 1.09 1.19 1.21 1.16 1.23 1.24 1.33 1.27 1.28 1.31 1.34
0.30 0.29 0.25 0.24 0.21 0.22 0.21 0.16 0.10 0.09 0.10 0.18 0.19 0.26 0.35 0.49 0.62 0.66 0.71 0.77 0.89 0.99 1.13 1.20 1.25 1.28 1.23 1.31 1.33 1.34 1.39 1.39
0.25 0.30 0.32 0.29 0.23 0.22 0.17 0.14 0.16 0.14 0.11 0.19 0.17 0.18 0.28 0.42 0.54 0.62 0.67 0.71 0.79 0.85 0.97 1.16 1.17 1.26 1.28 1.28 1.31 1.30 1.38 1.42
0.26 0.32 0.30 0.25 0.28 0.26 0.23 0.21 0.15 0.13 0.12 0.19 0.19 0.19 0.20 0.27 0.44 0.57 0.59 0.63 0.70 0.83 0.88 0.97 1.12 1.19 1.22 1.23 1.25 1.33 1.38 1.40
0.24 0.28 0.33 0.26 0.24 0.25 0.24 0.18 0.16 0.15 0.16 0.19 0.19 0.18 0.18 0.21 0.30 0.40 0.46 0.50 0.57 0.71 0.84 0.93 1.03 1.08 1.14 1.21 1.32 1.37 1.37 1.37
0.35 0.35 0.32 0.29 0.27 0.25 0.22 0.21 0.18 0.17 0.17 0.21 0.22 0.22 0.22 0.21 0.22 0.31 0.39 0.48 0.53 0.58 0.78 0.90 0.98 1.10 1.18 1.20 1.30 1.35 1.34 1.34
0.30 0.34 0.32 0.27 0.28 0.28 0.26 0.24 0.23 0.22 0.19 0.24 0.25 0.25 0.24 0.24 0.23 0.23 0.31 0.40 0.46 0.55 0.70 0.88 1.01 1.09 1.19 1.23 1.26 1.34 1.33 1.27
0.26 0.33 0.31 0.23 0.25 0.27 0.27 0.27 0.24 0.18 0.23 0.27 0.25 0.25 0.25 0.24 0.25 0.26 0.28 0.31 0.37 0.47 0.61 0.83 0.98 1.12 1.14 1.17 1.32 1.35 1.29 1.35
0.26 0.30 0.20 0.28 0.33 0.34 0.30 0.28 0.27 0.26 0.26 0.27 0.27 0.28 0.29 0.32 0.31 0.30 0.29 0.32 0.35 0.43 0.52 0.74 0.87 0.98 1.06 1.16 1.18 1.25 1.33 1.33
0.25 0.25 0.27 0.30 0.35 0.39 0.39 0.31 0.31 0.28 0.29 0.30 0.31 0.30 0.30 0.34 0.36 0.35 0.32 0.30 0.36 0.44 0.52 0.62 0.81 0.96 0.96 1.03 1.14 1.20 1.23 1.27
0.28 0.22 0.20 0.32 0.45 0.54 0.59 0.29 0.41 0.35 0.31 0.31 0.32 0.25 0.28 0.36 0.37 0.37 0.37 0.33 0.35 0.42 0.48 0.56 0.75 0.89 0.96 1.00 1.06 1.09 1.16 1.20
0.25 0.28 0.28 0.38 0.51 0.60 0.30 0.30 0.56 0.61 0.48 0.35 0.31 0.32 0.37 0.44 0.46 0.50 0.47 0.41 0.39 0.43 0.47 0.54 0.69 0.84 0.90 0.95 0.93 0.99 1.12 1.24
0.27 0.26 0.22 0.50 0.46 0.43 0.63 0.75 0.72 0.69 0.62 0.43 0.42 0.47 0.52 0.59 0.65 0.70 0.69 0.71 0.67 0.49 0.48 0.62 0.76 0.79 0.90 0.93 1.01 1.17 1.22 1.25
0.26 0.24 0.44 0.51 0.58 0.74 0.86 0.88 0.85 0.77 0.74 0.64 0.58 0.59 0.63 0.66 0.74 0.79 0.85 0.88 0.94 0.82 0.77 0.74 0.70 0.80 0.82 1.05 1.16 1.20 1.27 1.31
0.41 0.37 0.33 0.47 0.71 0.82 0.92 0.99 1.04 0.99 0.95 0.86 0.71 0.75 0.74 0.76 0.77 0.81 0.83 0.83 0.90 0.88 0.85 0.82 0.94 1.00 0.95 0.96 1.05 1.10 1.14 1.21
0.39 0.46 0.51 0.53 0.66 0.82 0.96 1.13 1.15 1.15 1.09 1.00 0.93 0.90 0.90 0.88 0.90 0.92 0.94 0.93 0.89 0.85 0.86 0.88 0.93 0.91 0.93 0.97 1.10 1.08 1.04 1.04
0.37 0.48 0.59 0.70 0.76 0.90 0.99 1.07 1.20 1.20 1.19 1.17 1.09 1.00 1.01 0.94 0.96 0.94 0.89 0.90 0.88 0.88 0.86 0.88 0.89 0.89 0.92 0.94 0.92 0.93 0.95 1.00
0.46 0.67 0.69 0.83 0.90 0.99 1.03 1.13 1.20 1.24 1.27 1.24 1.26 1.19 1.09 1.05 1.08 1.04 1.00 0.97 0.90 0.86 0.89 0.87 0.86 0.88 0.93 0.95 0.93 0.93 0.89 0.95

GFSFLT2_prec_pwat_030.txt.gz
Precipitable_Water
0.30 0.30 0.28 0.25 0.18 0.19 0.16 0.18 0.14 0.14 0.17 0.24 0.33 0.38 0.48 0.52 0.60 0.63 0.81 0.93 0.96 1.03 1.14 1.18 1.10 1.11 1.15 1.07 1.00 1.11 1.15 1.19
0.32 0.31 0.29 0.27 0.26 0.18 0.17 0.13 0.11 0.11 0.13 0.15 0.21 0.27 0.39 0.47 0.56 0.65 0.76 0.90 0.94 1.01 1.07 1.16 1.17 1.23 1.30 1.30 1.19 1.10 1.15 1.21
0.33 0.27 0.24 0.25 0.25 0.23 0.21 0.16 0.12 0.12 0.13 0.20 0.20 0.27 0.30 0.40 0.52 0.64 0.77 0.83 0.82 0.94 1.05 1.17 1.30 1.33 1.29 1.38 1.38 1.35 1.27 1.19
0.30 0.35 0.33 0.30 0.26 0.25 0.18 0.18 0.17 0.17 0.16 0.24 0.19 0.21 0.32 0.37 0.50 0.65 0.76 0.77 0.82 0.85 0.95 1.04 1.13 1.27 1.28 1.31 1.37 1.38 1.41 1.39
0.33 0.36 0.37 0.29 0.29 0.29 0.27 0.24 0.20 0.16 0.17 0.26 0.24 0.26 0.32 0.40 0.47 0.59 0.67 0.79 0.85 0.81 0.83 0.98 1.12 1.25 1.33 1.40 1.32 1.40 1.48 1.47
0.30 0.33 0.37 0.31 0.31 0.30 0.29 0.22 0.21 0.22 0.22 0.26 0.24 0.25 0.26 0.29 0.41 0.49 0.59 0.67 0.74 0.79 0.88 0.93 1.00 1.12 1.19 1.29 1.46 1.46 1.46 1.42
0.45 0.43 0.39 0.36 0.32 0.33 0.29 0.29 0.23 0.25 0.26 0.29 0.31 0.27 0.30 0.32 0.35 0.40 0.50 0.56 0.64 0.75 0.85 0.84 0.87 0.97 1.10 1.16 1.26 1.43 1.45 1.44
0.36 0.40 0.39 0.34 0.36 0.35 0.34 0.33 0.32 0.29 0.28 0.37 0.39 0.38 0.33 0.33 0.31 0.31 0.38 0.44 0.51 0.65 0.74 0.76 0.82 0.87 0.95 1.06 1.18 1.32 1.37 1.34
0.29 0.36 0.36 0.31 0.34 0.35 0.35 0.35 0.34 0.27 0.34 0.38 0.37 0.37 0.35 0.31 0.30 0.28 0.30 0.36 0.46 0.57 0.64 0.70 0.75 0.81 0.83 0.91 1.11 1.22 1.27 1.39
0.29 0.33 0.22 0.31 0.41 0.40 0.37 0.37 0.38 0.35 0.36 0.38 0.39 0.41 0.39 0.37 0.33 0.31 0.29 0.32 0.40 0.49 0.55 0.64 0.72 0.73 0.85 0.93 1.02 1.14 1.26 1.34
0.28 0.26 0.29 0.33 0.36 0.36 0.36 0.35 0.41 0.38 0.41 0.40 0.41 0.41 0.39 0.39 0.36 0.34 0.34 0.34 0.38 0.46 0.53 0.57 0.61 0.66 0.70 0.85 0.93 1.11 1.19 1.29
0.27 0.24 0.21 0.31 0.36 0.41 0.49 0.34 0.49 0.55 0.54 0.54 0.58 0.34 0.36 0.41 0.41 0.37 0.40 0.42 0.41 0.40 0.43 0.48 0.54 0.61 0.68 0.74 0.85 0.97 1.11 1.24
0.25 0.23 0.26 0.35 0.46 0.66 0.32 0.50 0.69 0.70 0.68 0.71 0.58 0.62 0.62 0.63 0.60 0.57 0.52 0.47 0.49 0.50 0.46 0.48 0.55 0.56 0.55 0.68 0.75 0.98 1.27 1.36
0.23 0.21 0.19 0.32 0.33 0.30 0.55 0.72 0.74 0.75 0.73 0.69 0.69 0.68 0.72 0.75 0.69 0.62 0.58 0.67 0.70 0.59 0.52 0.55 0.65 0.57 0.55 0.61 0.77 1.03 1.15 1.20
0.23 0.21 0.30 0.37 0.33 0.41 0.55 0.56 0.63 0.73 0.80 0.76 0.70 0.68 0.73 0.79 0.79 0.64 0.70 0.77 0.77 0.59 0.64 0.74 0.77 0.70 0.61 0.69 0.84 0.98 1.06 1.12
0.27 0.28 0.33 0.38 0.42 0.43 0.47 0.49 0.59 0.61 0.73 0.77 0.74 0.80 0.84 0.89 0.85 0.86 0.94 0.93 0.91 0.86 0.81 0.80 0.86 0.88 0.88 0.90 0.94 0.94 0.97 1.07
0.33 0.36 0.35 0.32 0.32 0.33 0.42 0.47 0.45 0.50 0.63 0.71 0.77 0.83 0.93 0.93 0.93 0.96 1.00 0.98 1.02 1.03 0.99 0.92 0.96 0.96 1.01 1.07 1.11 0.97 0.98 1.03
0.27 0.36 0.40 0.40 0.44 0.37 0.34 0.43 0.45 0.53 0.56 0.73 0.87 0.98 1.01 1.04 1.08 1.03 1.02 1.06 1.06 1.07 1.04 1.03 1.03 1.01 1.02 1.04 1.02 1.01 1.00 1.01
0.43 0.48 0.46 0.47 0.50 0.49 0.53 0.49 0.52 0.63 0.71 0.86 1.04 1.08 1.07 1.07 1.11 1.12 1.13 1.12 1.14 1.14 1.14 1.11 1.08 1.02 1.00 1.01 1.02 0.97 0.93 0.96

GFSFLT2_prec_pwat_033.txt.gz
Precipitable_Water
0.32 0.31 0.30 0.27 0.18 0.20 0.18 0.19 0.15 0.15 0.19 0.24 0.33 0.38 0.47 0.56 0.64 0.75 0.90 1.00 1.04 1.17 1.16 1.18 1.14 1.07 1.03 0.99 1.04 1.11 1.12 1.18
0.34 0.34 0.31 0.30 0.27 0.19 0.19 0.16 0.15 0.17 0.19 0.20 0.26 0.31 0.39 0.47 0.57 0.64 0.77 0.98 0.99 1.06 1.11 1.23 1.22 1.16 1.10 1.10 1.02 0.92 1.00 1.07
0.38 0.28 0.26 0.25 0.27 0.24 0.21 0.18 0.17 0.19 0.19 0.23 0.27 0.32 0.35 0.45 0.51 0.59 0.65 0.88 0.98 1.01 1.10 1.22 1.30 1.30 1.17 1.17 1.19 1.19 1.09 1.08
0.32 0.34 0.36 0.31 0.27 0.29 0.19 0.18 0.18 0.22 0.25 0.29 0.28 0.29 0.35 0.41 0.50 0.56 0.66 0.83 1.03 1.06 1.12 1.21 1.27 1.31 1.33 1.33 1.32 1.36 1.39 1.33
0.38 0.37 0.36 0.30 0.29 0.29 0.28 0.25 0.23 0.19 0.24 0.36 0.34 0.29 0.34 0.38 0.48 0.59 0.70 0.84 1.05 1.06 1.00 1.06 1.14 1.22 1.32 1.39 1.37 1.44 1.52 1.49
0.34 0.33 0.35 0.30 0.30 0.29 0.29 0.24 0.24 0.25 0.25 0.32 0.33 0.33 0.37 0.44 0.49 0.57 0.67 0.78 0.92 0.95 0.93 1.01 1.05 1.15 1.26 1.41 1.53 1.56 1.57 1.58
0.47 0.50 0.44 0.37 0.33 0.31 0.27 0.29 0.24 0.29 0.31 0.36 0.37 0.35 0.36 0.41 0.50 0.55 0.61 0.68 0.81 0.89 0.97 0.98 1.02 1.13 1.22 1.32 1.46 1.55 1.58 1.58
0.46 0.49 0.48 0.40 0.40 0.35 0.33 0.32 0.31 0.32 0.33 0.42 0.44 0.40 0.39 0.40 0.43 0.48 0.50 0.56 0.63 0.67 0.84 0.94 0.96 1.04 1.14 1.18 1.23 1.38 1.43 1.47
0.39 0.49 0.47 0.37 0.38 0.39 0.38 0.37 0.35 0.31 0.38 0.45 0.44 0.46 0.45 0.44 0.43 0.41 0.45 0.48 0.54 0.59 0.68 0.87 0.98 1.04 1.06 1.09 1.19 1.22 1.32 1.46
0.35 0.43 0.31 0.40 0.49 0.46 0.43 0.43 0.44 0.44 0.47 0.48 0.49 0.50 0.50 0.47 0.41 0.39 0.38 0.42 0.46 0.52 0.61 0.73 0.81 0.97 1.03 1.10 1.14 1.11 1.14 1.32
0.32 0.33 0.37 0.39 0.43 0.45 0.42 0.40 0.47 0.45 0.47 0.47 0.47 0.46 0.45 0.48 0.46 0.44 0.41 0.41 0.41 0.46 0.53 0.63 0.70 0.82 0.95 1.07 1.07 1.10 1.05 1.11
0.35 0.30 0.29 0.39 0.47 0.49 0.52 0.38 0.51 0.48 0.46 0.46 0.51 0.44 0.52 0.69 0.71 0.60 0.50 0.47 0.48 0.48 0.51 0.57 0.61 0.69 0.74 0.81 0.95 1.01 0.99 1.09
0.31 0.32 0.36 0.46 0.54 0.56 0.37 0.60 0.66 0.61 0.62 0.67 0.65 0.78 0.92 0.91 0.81 0.85 0.83 0.75 0.73 0.69 0.62 0.58 0.58 0.60 0.65 0.70 0.76 0.87 1.11 1.15
0.30 0.28 0.28 0.46 0.42 0.44 0.58 0.78 0.83 0.86 0.91 0.93 0.93 0.94 0.87 0.80 0.78 0.80 0.81 0.78 0.74 0.74 0.85 0.81 0.64 0.65 0.68 0.66 0.67 0.87 0.95 1.07
0.29 0.29 0.39 0.45 0.45 0.45 0.51 0.59 0.69 0.70 0.73 0.78 0.77 0.83 0.82 0.77 0.83 0.88 0.90 0.81 0.68 0.72 0.92 0.77 0.78 0.78 0.73 0.77 0.89 0.89 0.93 1.01
0.32 0.36 0.38 0.40 0.43 0.44 0.47 0.52 0.60 0.62 0.63 0.60 0.57 0.73 0.81 0.85 0.94 0.97 0.97 0.99 1.09 1.02 0.91 0.80 0.99 1.05 0.97 0.97 0.98 0.93 0.95 1.04
0.30 0.34 0.40 0.43 0.44 0.45 0.47 0.50 0.53 0.56 0.59 0.57 0.55 0.60 0.77 0.88 1.03 1.01 1.09 1.18 1.13 1.12 1.08 1.07 1.18 1.22 1.24 1.21 1.10 1.02 1.03 1.07
0.32 0.40 0.38 0.41 0.49 0.51 0.46 0.44 0.46 0.53 0.53 0.65 0.65 0.71 0.91 0.86 0.98 1.11 1.08 1.13 1.11 1.12 1.10 1.10 1.12 1.11 1.14 1.17 1.29 1.26 1.15 1.17
0.42 0.48 0.49 0.52 0.54 0.55 0.52 0.46 0.45 0.48 0.55 0.62 0.70 0.76 0.98 0.89 1.06 1.15 1.13 1.20 1.23 1.21 1.21 1.21 1.19 1.10 1.12 1.21 1.23 1.22 1.19 1.21

GFSFLT2_prec_pwat_036.txt.gz
Precipitable_Water
0.37 0.30 0.29 0.27 0.19 0.22 0.18 0.20 0.16 0.17 0.20 0.24 0.33 0.39 0.49 0.55 0.64 0.76 0.87 1.06 1.21 1.31 1.28 1.19 1.15 1.12 1.07 1.08 1.12 1.16 1.15 1.24
0.35 0.36 0.30 0.28 0.30 0.20 0.19 0.15 0.16 0.20 0.20 0.20 0.23 0.30 0.39 0.47 0.53 0.67 0.77 0.92 1.13 1.26 1.27 1.23 1.12 1.11 1.11 1.12 1.03 1.06 1.13 1.13
0.39 0.32 0.27 0.26 0.29 0.28 0.23 0.18 0.19 0.23 0.22 0.29 0.27 0.27 0.33 0.41 0.48 0.62 0.72 0.86 1.09 1.27 1.26 1.18 1.18 1.22 1.14 1.11 1.13 1.10 1.06 1.03
0.42 0.41 0.38 0.33 0.28 0.31 0.21 0.18 0.21 0.26 0.29 0.35 0.35 0.33 0.35 0.38 0.46 0.62 0.71 0.90 1.03 1.21 1.24 1.17 1.19 1.21 1.18 1.14 1.14 1.18 1.18 1.13
0.41 0.45 0.40 0.32 0.31 0.31 0.33 0.26 0.21 0.20 0.26 0.41 0.38 0.39 0.41 0.36 0.48 0.54 0.67 0.72 0.94 1.14 1.20 1.15 1.17 1.22 1.24 1.28 1.24 1.38 1.46 1.40
0.35 0.37 0.44 0.33 0.33 0.32 0.31 0.25 0.24 0.24 0.33 0.38 0.39 0.38 0.37 0.39 0.47 0.55 0.62 0.66 0.86 1.05 1.21 1.24 1.21 1.25 1.28 1.35 1.43 1.45 1.51 1.54
0.47 0.51 0.50 0.37 0.34 0.34 0.27 0.32 0.26 0.29 0.31 0.40 0.42 0.42 0.41 0.48 0.51 0.57 0.65 0.78 0.86 0.95 1.23 1.26 1.14 1.21 1.28 1.35 1.44 1.54 1.52 1.56
0.48 0.56 0.57 0.48 0.39 0.36 0.33 0.31 0.35 0.34 0.36 0.46 0.48 0.45 0.47 0.50 0.56 0.61 0.67 0.75 0.85 1.02 1.15 1.30 1.35 1.24 1.19 1.23 1.37 1.49 1.49 1.49
0.40 0.55 0.53 0.45 0.45 0.40 0.37 0.36 0.35 0.33 0.41 0.49 0.48 0.48 0.47 0.46 0.51 0.55 0.60 0.64 0.69 0.74 0.81 0.99 1.15 1.37 1.26 1.23 1.36 1.40 1.37 1.43
0.43 0.53 0.43 0.52 0.58 0.51 0.45 0.39 0.39 0.41 0.45 0.53 0.59 0.58 0.59 0.57 0.52 0.52 0.56 0.59 0.60 0.61 0.68 0.79 0.90 1.11 1.29 1.39 1.32 1.26 1.33 1.37
0.40 0.48 0.54 0.54 0.54 0.50 0.47 0.46 0.50 0.45 0.48 0.58 0.58 0.60 0.58 0.61 0.58 0.53 0.54 0.56 0.59 0.60 0.60 0.66 0.85 0.97 1.08 1.06 1.15 1.18 1.19 1.23
0.41 0.40 0.37 0.51 0.57 0.61 0.58 0.43 0.61 0.57 0.56 0.57 0.56 0.47 0.68 0.86 0.87 0.83 0.86 0.86 0.81 0.76 0.71 0.57 0.70 0.75 1.01 1.02 1.13 1.10 1.14 1.12
0.37 0.37 0.46 0.60 0.61 0.61 0.46 0.65 0.85 0.79 0.71 0.64 0.60 0.81 0.93 0.96 0.91 0.91 0.89 0.88 0.87 0.78 0.73 0.74 0.74 0.75 0.77 0.93 1.00 1.06 1.13 1.18
0.36 0.34 0.39 0.63 0.61 0.57 0.79 0.89 0.81 0.80 0.80 0.80 0.83 0.88 0.95 0.97 0.97 0.93 0.89 0.93 0.91 0.80 0.76 0.82 0.88 0.73 0.66 0.71 0.75 0.83 0.96 1.10
0.37 0.38 0.52 0.57 0.57 0.63 0.62 0.66 0.79 0.76 0.74 0.78 0.74 0.75 0.78 0.84 0.96 1.05 1.08 1.09 1.02 0.86 0.72 0.74 1.01 0.87 0.65 0.74 0.87 0.85 0.91 0.96
0.38 0.41 0.46 0.51 0.54 0.56 0.58 0.56 0.65 0.73 0.71 0.70 0.73 0.75 0.73 0.74 0.86 1.05 1.23 1.16 1.34 1.22 1.11 1.05 0.99 1.02 0.98 0.91 0.93 1.00 0.97 1.01
0.40 0.45 0.47 0.47 0.50 0.53 0.53 0.56 0.56 0.62 0.66 0.68 0.71 0.70 0.75 0.76 0.87 1.08 1.17 1.30 1.24 1.23 1.29 1.31 1.30 1.24 1.24 1.23 1.17 1.02 1.01 1.09
0.33 0.44 0.48 0.48 0.53 0.54 0.53 0.52 0.56 0.57 0.60 0.68 0.67 0.65 0.71 0.77 0.94 0.96 0.97 1.21 1.18 1.18 1.25 1.29 1.26 1.19 1.24 1.28 1.31 1.23 1.13 1.15
0.39 0.45 0.48 0.51 0.56 0.58 0.57 0.58 0.58 0.61 0.61 0.61 0.66 0.69 0.70 0.76 1.04 1.01 1.00 1.22 1.19 1.21 1.27 1.29 1.23 1.13 1.13 1.21 1.32 1.29 1.25 1.29